Location: Choisy
(48.7685°N, 2.4187°E)
Time: 22:09:31
(UTC+00:00)

CENTAUR R/B - Pass Details

Date: 24 October 2021
Orbit: 728 x 1459 km, 63.4° (Epoch: 26 November)

Event Time Altitude Azimuth Distance (km) Brightness Sun altitude
Rises 21:40:22 0° 317° (NW) 4,151 6.5 -46.3°
Reaches altitude 10° 21:43:01 10° 315° (NW) 3,271 5.8 -46.6°
Enters shadow 21:46:55 33° 307° (NW) 2,105 4.4 -47.1°
